STARLINK-34405, 64704

Orbit data source: Space-Track

STARLINK-34405, 64704 is a payload satellite owned by SpaceX/Seattle (US) in LEO that was launched on Sat, 28 Jun 2025 UTC via an FALCON 9 launch vehicle from the Air Force Western Test Range (AFWTR). Payload-class satellites include a variety of spacecraft equipped with specific instruments for various scientific and technological missions. These include communications satellites like Starlink; space stations such as the ISS; scientific satellites like the Hubble; Earth observation satellites from companies like Planet Labs, Umbra, and HawkEye 360; GPS; miniature CubeSats for education and research; and military/defense satellites.

Loading next visibility...
Identifier
64704, 2025-142J
Orbit
LEO
Country
Flag of USUS
Related business
Manufacturer
SpaceX/Seattle
Mission
Operational Commercial Communications
Bus & Motor
STARLINK V2MO, Unknown motor
Mass
575 kg wet, ~530 kg dry
Launch date (UTC)
2025-06-28 (1 year ago)
Launch vehicle
FALCON 9
Launch site
Air Force Western Test Range (AFWTR)
Object type
Payload
Rocket body
Debris
Shape & HBR
Box + 2 Pan, 17.7 m
Radar Cross Section
36.964 m², Large (>1 m²)

Expand to show TLE details & history
Last TLE update: 6 hours ago

TLE from 6 hours ago
0 STARLINK-34405
1 64704U 25142J   26207.62515849  .00004918  00000-0  41951-3 0  9997
2 64704  70.0027 324.0838 0003388 272.2035  87.8736 14.98341135 60307
Epoch: 2026-07-26T15:00Z
TLE epoch observation values (Epoch: 2026-07-26T15:00:13.693Z)
Latitude
-0.00004°
Longitude
154.70633°
Altitude
574.359 km
Speed
7.574 km/s
True Right ascension
21h 36m 20s
True Declination
0° 00' 00"
Sunlit
Object was in full shadow at epoch
Visualization orbit readout
Latitude
Unknown
Longitude
Unknown
Altitude
Unknown
Speed
Unknown
Apparent Right ascension
Unknown
Apparent Declination
Unknown
Sunlit
N/A
Visualization observer readout
Local Sidereal Time
09:50:28
Azimuth
Unknown
Elevation
Unknown
Doppler factor
Unknown
Orbital elements
Apogee altitude
572.323 km
Perigee altitude
567.615 km
Semi-major axis
6,948.106 km
Eccentricity
0.00034
Inclination
70.0027°
RAAN
324.0838°
Arg. of periapsis
272.2035°
True anomaly
87.9124°
Mean anomaly
87.8736°
Eccentric anomaly
87.893°
Mean motion
3.74752 °/min
Orbital period
96.06 mins
BSTAR
0.00041951
Loading maneuver chart data...
Computing Atmospheric mass density...
Loading historical data...
Loading historical data...
Loading historical data...
Loading historical data...
Loading historical data...
Loading historical data...
Loading historical data...

Documentation

Showing up to 5 results
|